[[{"header":{"parameterUnit":"m.s-1","parameterCategory":1,"la1":30.2991,"la2":30.254,"lo1":-89.0895,"lo2":-89.0444,"dy":0.0017,"dx":0.0017,"nx":28,"ny":28,"refTime":"2025-05-28T21:00:00:Z","depth":0,"parameterNumber":2,"parameterNumberName":"U-component_of_WINDS"},"data":[0,0,0,0,0,0,0,0,0,0,0,0,0,0,0,0,0,0,0,0,0,0,0,0,0,0,0,0,0,0,0,0,0,0,0,0,0,0,0,0,0,0,0,0,0,0,0,0,0,0,0,0,0,0,0,0,0,0,-3.0702,-3.0701,0,-3.0658,-3.0658,-3.0657,-3.0554,-3.0551,-3.0549,-3.0547,-3.0503,-3.0503,-3.0504,0,0,0,0,0,0,0,0,0,0,0,0,0,-3.0694,-3.0695,-3.0702,-3.0701,-3.0701,-3.0658,-3.0658,-3.0657,-3.0554,-3.0551,-3.0549,-3.0546,-3.0502,-3.0503,-3.0504,0,0,0,0,0,0,0,0,0,0,0,0,0,-3.0679,-3.0695,-3.0702,-3.0644,-3.0639,-3.0658,-3.0658,-3.0657,-3.0555,-3.0551,-3.0548,-3.0545,-3.0502,-3.0503,-3.0504,-3.0577,0,0,-3.0508,-3.0509,0,0,0,0,0,0,0,0,-3.068,-3.0679,-3.0653,-3.0648,-3.0642,-3.0608,-3.0638,-3.063,-3.0555,-3.0586,-3.0547,-3.0543,-3.054,-3.0538,-3.0537,-3.0575,-3.0573,-3.0508,-3.0509,-3.051,-3.051,0,0,0,0,0,0,0,-3.0681,-3.0681,-3.0684,-3.0653,-3.0646,-3.062,-3.0614,-3.0636,-3.0582,-3.0583,-3.0576,-3.0572,-3.0537,-3.0536,-3.0535,-3.0572,-3.0508,-3.0509,-3.051,-3.0511,-3.0663,-3.0666,0,0,0,0,0,0,-3.0691,-3.0682,-3.0686,-3.0683,-3.0653,-3.0623,-3.0616,-3.0622,-3.0582,-3.0572,-3.0575,-3.0567,-3.0536,-3.0534,-3.0533,-3.0612,-3.051,-3.0511,-3.0511,-3.066,-3.0664,-3.0667,0,0,0,0,0,0,-3.0691,-3.0692,-3.0688,-3.0681,-3.0678,-3.0626,-3.0634,-3.0623,-3.0622,-3.0575,-3.0565,-3.0585,-3.0533,-3.0532,-3.0566,-3.0609,-3.0511,-3.0512,-3.0656,-3.0661,-3.0666,-3.0773,0,0,0,0,0,0,-3.0691,-3.0693,-3.072,-3.0682,-3.0679,-3.0722,-3.0637,-3.0625,-3.0625,-3.0615,-3.0581,-3.0573,-3.053,-3.0565,-3.0567,-3.0609,-3.0513,-3.0652,-3.0658,-3.0664,-3.0765,-3.0781,-3.0795,0,0,0,0,0,-3.0691,-3.0753,-3.0722,-3.0723,-3.0712,-3.0725,-3.0723,-3.0673,-3.0629,-3.0655,-3.0624,-3.0574,-3.0605,-3.0569,-3.0571,-3.0614,-3.0649,-3.0656,-3.0664,-3.0759,-3.0778,-3.0794,0,0,0,0,0,0,-3.0798,-3.0747,-3.0712,-3.0763,-3.0749,-3.0707,-3.0739,-3.0695,-3.0693,-3.0684,-3.0622,-3.0615,-3.0657,-3.0639,-3.06,-3.068,-3.0618,-3.0627,-3.069,-3.0708,-3.0722,-3.0725,-3.0514,0,0,0,0,0,-3.0828,-3.0842,-3.0797,-3.0846,-3.0841,-3.0792,-3.0795,-3.0758,-3.074,-3.0734,-3.0706,-3.0691,-3.0696,-3.0702,-3.0705,-3.0763,-3.0753,-3.0794,-3.0808,-3.0821,-3.0828,-3.0854,-3.087,-3.0692,-3.0692,-3.0692,0,0,-3.0889,-3.0863,-3.0876,-3.0867,-3.0851,-3.0867,-3.0787,-3.0808,-3.0818,-3.0737,-3.0766,-3.0746,-3.0725,-3.077,-3.0789,-3.0757,-3.0875,-3.083,-3.084,-3.084,-3.0863,-3.088,-3.0895,-3.0697,-3.0696,-3.0695,0,0,-3.1007,-3.099,-3.1028,-3.1014,-3.0991,-3.0957,-3.0967,-3.0931,-3.0913,-3.0943,-3.0881,-3.0893,-3.0905,-3.0891,-3.0886,-3.0998,-3.095,-3.1001,-3.1076,-3.1103,-3.1117,-3.1129,-3.1166,-3.118,-3.1009,-3.1009,-3.1009,0,-3.1086,-3.1107,-3.1053,-3.1076,-3.1073,-3.1,-3.1037,-3.1026,-3.1006,-3.1005,-3.0969,-3.0981,-3.0962,-3.1002,-3.1029,-3.1029,-3.1036,-3.1003,-3.1119,-3.1131,-3.1141,-3.1176,-3.119,-3.1015,-3.1015,-3.1014,-3.1013,0,-3.1203,-3.1218,-3.1252,-3.1233,-3.1234,-3.1264,-3.1214,-3.1221,-3.1184,-3.1154,-3.1183,-3.1158,-3.1153,-3.116,-3.1125,-3.1195,-3.1175,-3.1131,-3.1066,-3.1165,-3.1196,-3.1209,-3.1024,-3.1022,-3.102,-3.1018,0,0,-3.1386,-3.1336,-3.1349,-3.1338,-3.1307,-3.1318,-3.1345,-3.1339,-3.1346,-3.1334,-3.1353,-3.1365,-3.1322,-3.1317,-3.1279,-3.1302,-3.1389,-3.1254,-3.1253,-3.1277,-3.146,-3.1492,-3.1508,-3.1358,-3.136,-3.1362,-3.1461,0,-3.1495,-3.1536,-3.1488,-3.154,-3.1552,-3.1482,-3.1505,-3.1488,-3.1461,-3.1467,-3.1436,-3.1444,-3.139,-3.1385,-3.1406,-3.1374,-3.1424,-3.1366,-3.1372,-3.1373,-3.1377,-3.1525,-3.1558,-3.1653,-3.1473,-3.1475,-3.1477,0,-3.1627,-3.162,-3.1673,-3.1636,-3.1639,-3.166,-3.165,-3.1658,-3.1636,-3.1615,-3.1608,-3.1562,-3.1583,-3.1523,-3.1551,-3.1513,-3.1513,-3.1497,-3.15,-3.1496,-3.1429,-3.1522,-3.1683,-3.1696,-3.1496,-3.1494,-3.1493,0,-3.1751,-3.1756,-3.1787,-3.178,-3.1739,-3.1755,-3.1739,-3.1714,-3.1714,-3.1705,-3.1703,-3.1699,-3.1695,-3.1691,-3.1644,-3.1606,-3.1677,-3.1614,-3.1657,-3.1659,-3.1673,-3.1673,-3.1833,-3.1679,-3.1679,-3.1679,-3.1678,0,-3.1875,-3.1909,-3.1841,-3.186,-3.1896,-3.184,-3.1877,-3.1853,-3.1832,-3.1844,-3.1785,-3.1797,-3.1736,-3.1742,-3.1706,-3.1732,-3.1732,-3.1714,-3.1703,-3.1717,-3.1719,-3.1714,-3.1705,-3.1682,-3.1682,-3.1681,-3.168,0,-3.2019,-3.1975,-3.2004,-3.1963,-3.1953,-3.1981,-3.1944,-3.196,-3.1929,-3.1944,-3.1945,-3.1896,-3.1899,-3.1853,-3.1848,-3.1823,-3.1865,-3.1844,-3.1872,-3.1864,-3.1909,-3.1904,-3.207,-3.2087,-3.1925,-3.1927,-3.1928,0,-3.2099,-3.2124,-3.2085,-3.2088,-3.2074,-3.2082,-3.208,-3.2026,-3.2027,-3.2004,-3.2021,-3.202,-3.2015,-3.2024,-3.1987,-3.1982,-3.1958,-3.2017,-3.1957,-3.197,-3.1955,-3.1953,-3.1953,-3.2028,-3.2031,-3.2032,-3.2034,0,-3.2246,-3.2223,-3.2223,-3.2215,-3.2215,-3.2206,-3.2194,-3.22,-3.2141,-3.2145,-3.2147,-3.2144,-3.2138,-3.2136,-3.2124,-3.2106,-3.2059,-3.2053,-3.2062,-3.2075,-3.2088,-3.2078,-3.1902,-3.2049,-3.2047,-3.2046,-3.2045,-3.2045,-3.2358,-3.2375,-3.2349,-3.2351,-3.2336,-3.2325,-3.2336,-3.2306,-3.2307,-3.2297,-3.2266,-3.2273,-3.2249,-3.2228,-3.2214,-3.2218,-3.2189,-3.2204,-3.2206,-3.221,-3.2217,-3.2091,-3.2216,-3.2216,-3.2215,-3.2215,-3.2214,0,-3.2498,-3.2478,-3.248,-3.2464,-3.2464,-3.2422,-3.2405,-3.2408,-3.2415,-3.2397,-3.2394,-3.2395,-3.2393,-3.2356,-3.2349,-3.2359,-3.2337,-3.2359,-3.2356,-3.2352,-3.2245,-3.2236,-3.2376,-3.2376,-3.2376,-3.2376,-3.2376,-3.2376,-3.257,-3.2596,-3.257,-3.2587,-3.2566,-3.2573,-3.2567,-3.2556,-3.2541,-3.2545,-3.2543,-3.2519,-3.2492,-3.2482,-3.2478,-3.2467,-3.2465,-3.2494,-3.2475,-3.2375,-3.236,-3.2345,-3.2336,-3.2495,-3.2495,-3.2581,-3.2582,-3.2582]},{"header":{"parameterUnit":"m.s-1","parameterCategory":1,"la1":30.2991,"la2":30.254,"lo1":-89.0895,"lo2":-89.0444,"dy":0.0017,"dx":0.0017,"nx":28,"ny":28,"refTime":"2025-05-28T21:00:00:Z","depth":0,"parameterNumber":3,"parameterNumberName":"V-component_of_WINDS"},"data":[0,0,0,0,0,0,0,0,0,0,0,0,0,0,0,0,0,0,0,0,0,0,0,0,0,0,0,0,0,0,0,0,0,0,0,0,0,0,0,0,0,0,0,0,0,0,0,0,0,0,0,0,0,0,0,0,0,0,-0.3579,-0.3579,0,-0.359,-0.359,-0.359,-0.3594,-0.3594,-0.3594,-0.3594,-0.3607,-0.3607,-0.3607,0,0,0,0,0,0,0,0,0,0,0,0,0,-0.3564,-0.3564,-0.3579,-0.3579,-0.3579,-0.359,-0.359,-0.359,-0.3594,-0.3594,-0.3594,-0.3594,-0.3606,-0.3607,-0.3607,0,0,0,0,0,0,0,0,0,0,0,0,0,-0.3572,-0.3564,-0.3579,-0.3583,-0.3583,-0.359,-0.359,-0.359,-0.3594,-0.3594,-0.3594,-0.3594,-0.3606,-0.3607,-0.3607,-0.3612,0,0,-0.3609,-0.3609,0,0,0,0,0,0,0,0,-0.3571,-0.3573,-0.3582,-0.3582,-0.3583,-0.359,-0.3589,-0.3597,-0.3594,-0.359,-0.3594,-0.3594,-0.3601,-0.3602,-0.3604,-0.3612,-0.3613,-0.3609,-0.3609,-0.361,-0.361,0,0,0,0,0,0,0,-0.3571,-0.3572,-0.3583,-0.3582,-0.3583,-0.3584,-0.3585,-0.3591,-0.3596,-0.359,-0.3591,-0.3592,-0.3602,-0.3604,-0.3605,-0.3613,-0.3609,-0.361,-0.361,-0.361,-0.3624,-0.3624,0,0,0,0,0,0,-0.357,-0.3572,-0.3583,-0.3584,-0.3577,-0.3584,-0.3586,-0.3588,-0.3596,-0.3597,-0.3592,-0.3592,-0.3603,-0.3604,-0.3605,-0.361,-0.361,-0.361,-0.3611,-0.3624,-0.3624,-0.3624,0,0,0,0,0,0,-0.3569,-0.3571,-0.3583,-0.3578,-0.3579,-0.3585,-0.3587,-0.3588,-0.3591,-0.3597,-0.3598,-0.3593,-0.3603,-0.3604,-0.361,-0.3611,-0.361,-0.3611,-0.3624,-0.3624,-0.3624,-0.362,0,0,0,0,0,0,-0.3569,-0.357,-0.3572,-0.3578,-0.3579,-0.3586,-0.3587,-0.3589,-0.3591,-0.3592,-0.3598,-0.3599,-0.3603,-0.3609,-0.361,-0.3611,-0.3611,-0.3624,-0.3624,-0.3624,-0.362,-0.362,-0.362,0,0,0,0,0,-0.3568,-0.3571,-0.3572,-0.3573,-0.3581,-0.3587,-0.3588,-0.3591,-0.3591,-0.3593,-0.3597,-0.3599,-0.361,-0.3609,-0.3611,-0.3612,-0.3624,-0.3624,-0.3624,-0.362,-0.362,-0.362,0,0,0,0,0,0,-0.3566,-0.3572,-0.3573,-0.3578,-0.3581,-0.3587,-0.3589,-0.3591,-0.3595,-0.3596,-0.36,-0.3602,-0.3607,-0.361,-0.3609,-0.3616,-0.3617,-0.3618,-0.3614,-0.3614,-0.3614,-0.3613,-0.3612,0,0,0,0,0,-0.3566,-0.3569,-0.3574,-0.3578,-0.358,-0.3584,-0.3587,-0.3589,-0.3593,-0.3595,-0.3599,-0.3604,-0.3608,-0.3611,-0.3616,-0.3621,-0.3622,-0.3622,-0.3622,-0.3622,-0.3622,-0.3624,-0.3624,-0.3624,-0.3624,-0.3624,0,0,-0.3566,-0.357,-0.3572,-0.3578,-0.3581,-0.3584,-0.3586,-0.3589,-0.3592,-0.3596,-0.3601,-0.3604,-0.3609,-0.3614,-0.3617,-0.3617,-0.3623,-0.3622,-0.3622,-0.3622,-0.3625,-0.3625,-0.3625,-0.3624,-0.3624,-0.3624,0,0,-0.3568,-0.3571,-0.3574,-0.3577,-0.3582,-0.3584,-0.3585,-0.359,-0.3592,-0.3597,-0.36,-0.3603,-0.3611,-0.3614,-0.3617,-0.3619,-0.3621,-0.3621,-0.362,-0.3622,-0.3622,-0.3622,-0.3622,-0.3622,-0.3621,-0.3621,-0.3621,0,-0.3568,-0.3573,-0.3576,-0.3579,-0.3581,-0.3584,-0.3587,-0.359,-0.3596,-0.3598,-0.3598,-0.3607,-0.3611,-0.3616,-0.3617,-0.3619,-0.362,-0.362,-0.3622,-0.3622,-0.3622,-0.3622,-0.3622,-0.3621,-0.3621,-0.3621,-0.3621,0,-0.3572,-0.3576,-0.3578,-0.3582,-0.3585,-0.3588,-0.3591,-0.3594,-0.3595,-0.3598,-0.3603,-0.3607,-0.3612,-0.3614,-0.3616,-0.3619,-0.3619,-0.3621,-0.3621,-0.3621,-0.3622,-0.3622,-0.3621,-0.3621,-0.3621,-0.3621,0,0,-0.3574,-0.3579,-0.358,-0.3582,-0.3586,-0.3589,-0.3592,-0.3596,-0.3598,-0.3602,-0.3604,-0.361,-0.3611,-0.3614,-0.3617,-0.3618,-0.3619,-0.3619,-0.362,-0.3619,-0.3622,-0.362,-0.362,-0.362,-0.362,-0.362,-0.3621,0,-0.3576,-0.3581,-0.3583,-0.3588,-0.359,-0.3592,-0.3595,-0.3598,-0.3601,-0.3604,-0.3607,-0.361,-0.3612,-0.3613,-0.3615,-0.3618,-0.3619,-0.3618,-0.3623,-0.3623,-0.3621,-0.3621,-0.362,-0.362,-0.3621,-0.3621,-0.3621,0,-0.358,-0.3582,-0.3586,-0.359,-0.3591,-0.3593,-0.3597,-0.3599,-0.3603,-0.3605,-0.3607,-0.361,-0.3613,-0.3613,-0.3618,-0.3617,-0.3619,-0.3621,-0.3621,-0.3621,-0.3622,-0.3621,-0.362,-0.362,-0.3622,-0.3622,-0.3622,0,-0.358,-0.3585,-0.3587,-0.3589,-0.3593,-0.3594,-0.3596,-0.36,-0.3602,-0.3605,-0.3606,-0.361,-0.3612,-0.3615,-0.3618,-0.3618,-0.3622,-0.3623,-0.3623,-0.3623,-0.3624,-0.3624,-0.3624,-0.3626,-0.3626,-0.3626,-0.3626,0,-0.3582,-0.3584,-0.3587,-0.3589,-0.3591,-0.3594,-0.3596,-0.3599,-0.3601,-0.3604,-0.3606,-0.3608,-0.3612,-0.3615,-0.3618,-0.362,-0.3622,-0.3623,-0.3624,-0.3623,-0.3622,-0.3624,-0.3624,-0.3626,-0.3626,-0.3626,-0.3626,0,-0.3582,-0.3585,-0.3588,-0.3591,-0.3592,-0.3593,-0.3596,-0.3598,-0.36,-0.3603,-0.3604,-0.3607,-0.361,-0.3614,-0.3618,-0.362,-0.3623,-0.3624,-0.3621,-0.3621,-0.3621,-0.3621,-0.3622,-0.3622,-0.3624,-0.3624,-0.3624,0,-0.3584,-0.3585,-0.3588,-0.3589,-0.3591,-0.3593,-0.3595,-0.3597,-0.3599,-0.3602,-0.3604,-0.3607,-0.3609,-0.3614,-0.3617,-0.3621,-0.3622,-0.3622,-0.3622,-0.3621,-0.3621,-0.3621,-0.3621,-0.3621,-0.3621,-0.3621,-0.3621,0,-0.3585,-0.3586,-0.3588,-0.359,-0.3591,-0.3594,-0.3596,-0.3597,-0.36,-0.3601,-0.3604,-0.3606,-0.361,-0.3613,-0.3616,-0.3618,-0.362,-0.3621,-0.3621,-0.362,-0.3618,-0.3619,-0.362,-0.3621,-0.3621,-0.3621,-0.3621,-0.3621,-0.3586,-0.3587,-0.3589,-0.3591,-0.3592,-0.3594,-0.3595,-0.3597,-0.3599,-0.3602,-0.3604,-0.3606,-0.3609,-0.3614,-0.3616,-0.3618,-0.3618,-0.3619,-0.3619,-0.3619,-0.3618,-0.3618,-0.3618,-0.3619,-0.3619,-0.3619,-0.3619,0,-0.3587,-0.3588,-0.359,-0.3592,-0.3593,-0.3594,-0.3596,-0.3597,-0.3599,-0.3602,-0.3604,-0.3606,-0.3609,-0.3612,-0.3615,-0.3616,-0.3617,-0.3616,-0.3616,-0.3616,-0.3618,-0.3617,-0.3615,-0.3615,-0.3615,-0.3615,-0.3615,-0.3615,-0.3588,-0.3589,-0.359,-0.3592,-0.3594,-0.3596,-0.3597,-0.3598,-0.36,-0.3602,-0.3604,-0.3606,-0.3608,-0.3611,-0.3613,-0.3614,-0.3615,-0.3614,-0.3615,-0.3616,-0.3617,-0.3617,-0.3616,-0.3614,-0.3614,-0.3614,-0.3614,-0.3614]}]]